Theta_e
331 323 329 322 304 302 297 301 305 307 307 312 315 309 305 309 307 300 324 333 337 337 340 340 344 346 347 346 345 345 343 339 337 336 336 336 335 335 335 334 334 334 334 334 334 334 334 334 333
328 324 323 313 298 294 295 302 304 308 313 318 318 314 312 309 317 321 325 336 337 338 340 340 342 345 346 346 345 344 343 340 338 336 335 336 335 335 335 335 334 334 334 334 334 334 333 333 333
322 324 313 308 300 295 295 302 305 310 316 315 315 315 313 313 319 323 330 335 336 337 339 340 344 347 347 346 345 344 344 342 338 337 336 335 335 335 335 335 335 335 335 335 334 332 332 333 334
318 313 311 301 298 303 302 304 307 309 313 317 315 310 315 320 322 325 333 333 333 335 337 340 344 347 347 346 345 344 344 343 339 336 335 335 335 335 336 335 335 334 334 331 332 333 333 334 335
315 309 301 298 301 305 305 310 309 309 311 313 314 310 311 319 327 332 331 332 332 333 336 339 343 345 345 345 344 344 341 339 336 335 333 333 335 334 335 335 332 331 333 333 333 334 334 335 335
308 306 295 294 300 306 306 310 310 311 311 313 313 312 313 321 328 330 330 329 332 333 335 339 336 339 342 343 342 341 340 336 335 333 332 332 332 332 332 332 333 333 332 333 333 334 335 335 336
305 302 297 297 300 302 305 313 309 310 311 313 317 311 312 319 328 329 329 329 330 334 335 335 336 335 333 336 336 337 337 337 335 334 333 334 335 334 334 333 331 331 332 334 334 335 335 335 336
309 307 299 299 299 300 306 312 313 313 311 321 321 309 309 315 323 328 329 328 329 333 334 334 331 331 330 330 330 331 333 334 334 334 332 331 331 331 330 328 331 331 332 332 333 334 335 335 335
315 303 299 299 300 301 308 307 313 316 316 317 319 316 318 317 325 325 326 327 327 330 331 332 328 328 327 327 325 327 329 330 329 328 326 324 324 325 324 326 329 332 332 332 333 335 335 332 330
308 302 302 305 306 303 307 307 309 311 314 316 314 320 316 321 322 321 322 322 322 324 328 330 325 325 326 329 324 324 325 324 324 324 323 324 324 325 327 323 325 328 327 329 332 335 332 329 329
308 302 307 307 308 308 308 307 308 310 309 315 316 316 315 319 320 320 320 321 321 324 326 329 325 324 325 326 327 323 323 323 323 324 324 326 326 323 323 323 324 322 323 328 332 330 328 323 324
302 306 308 310 311 310 307 308 306 307 311 319 322 318 315 317 319 319 317 318 319 322 325 328 324 324 323 324 324 324 324 324 324 325 327 323 322 322 323 324 328 330 331 327 325 322 318 316 314
303 306 308 310 309 310 311 308 307 307 312 316 322 318 315 317 319 321 321 320 319 321 324 326 322 323 324 323 324 325 325 325 325 324 327 324 324 324 330 331 331 328 324 318 316 314 313 311 310
305 305 306 308 309 309 308 308 308 307 312 318 319 317 315 315 318 321 321 320 319 321 323 325 322 323 326 323 324 325 325 325 324 325 326 327 328 331 329 325 322 318 314 313 313 312 309 307 306
305 301 303 305 306 306 309 304 304 310 318 316 316 315 314 315 319 320 322 321 322 324 325 324 323 322 326 325 326 326 326 326 328 330 330 331 332 326 322 319 315 311 311 310 310 308 306 302 302
299 300 294 302 305 306 306 296 305 311 315 313 314 312 311 314 318 320 322 323 324 325 324 326 327 323 325 324 326 325 325 329 324 322 322 322 322 320 316 313 308 306 306 306 305 305 300 298 299
296 289 293 296 305 306 304 299 306 310 312 313 314 313 311 312 318 320 321 323 323 324 324 325 325 323 321 321 327 324 322 320 318 317 316 315 314 313 311 307 304 303 302 302 303 300 298 296 298
287 289 291 293 296 303 302 302 306 308 311 313 314 314 313 312 315 319 321 322 323 323 324 324 323 321 321 325 320 317 315 312 311 310 309 310 309 307 305 302 301 300 298 297 299 298 297 295 296
293 292 290 293 297 299 298 298 304 307 311 313 314 314 314 313 315 317 320 321 322 323 323 323 320 319 324 321 317 315 310 307 305 306 306 306 306 304 302 300 298 297 295 295 296 297 295 294 294
293 291 291 292 297 296 296 297 302 305 307 312 314 314 314 315 314 315 317 319 321 321 322 321 321 320 324 322 318 312 308 304 303 302 302 302 302 300 299 297 296 295 293 293 293 294 293 293 293
292 289 290 289 294 296 294 294 300 305 308 311 315 317 316 316 315 314 315 316 317 318 320 320 320 322 324 317 308 304 303 302 301 299 299 298 299 298 297 295 295 294 293 291 291 292 292 291 291
285 293 293 291 290 285 295 286 298 302 303 309 313 315 316 317 318 317 315 315 316 317 318 319 320 324 319 313 309 307 306 302 300 298 297 296 297 296 295 294 293 292 291 290 290 291 290 289 288
289 294 292 292 289 288 290 289 294 301 299 304 311 314 316 318 319 317 316 316 317 316 317 319 320 321 316 314 312 309 302 299 297 296 295 294 294 294 294 293 291 291 290 289 288 288 288 287 286
296 294 292 289 288 281 288 290 290 296 299 303 310 313 315 316 317 316 312 312 308 311 313 317 317 315 315 314 311 305 299 296 295 294 293 292 292 292 291 292 291 290 290 289 289 286 286 285 284
295 289 282 280 279 280 290 289 293 299 303 305 308 313 314 316 311 307 307 306 306 306 307 311 311 307 309 307 306 303 299 297 295 294 292 291 290 290 291 291 290 290 290 288 286 285 284 283 282
291 288 281 276 279 283 288 284 292 298 305 308 310 314 315 313 309 308 307 305 303 302 302 303 304 302 303 304 303 301 300 298 296 294 292 291 291 291 291 290 289 287 287 286 285 284 283 282 281
291 288 291 284 284 282 285 287 296 301 303 303 310 313 313 310 309 307 305 305 302 301 300 300 301 302 301 300 300 299 298 297 294 292 292 291 291 290 290 289 287 285 285 284 283 282 281 281 281
294 295 287 286 279 278 285 285 288 295 300 302 308 310 307 305 302 301 301 301 301 300 299 299 300 299 299 297 296 294 293 292 291 291 290 290 290 289 288 286 285 284 283 283 282 282 281 281 280
292 290 291 290 287 282 281 283 290 290 301 303 304 303 301 299 298 298 297 296 296 296 295 294 294 294 293 293 293 293 292 292 292 291 291 290 289 286 285 284 284 283 282 282 281 281 280 280 279
291 291 291 284 283 284 284 285 294 293 301 299 297 297 298 299 298 296 294 294 294 293 293 292 293 293 293 293 292 292 292 293 292 291 287 286 285 286 285 284 284 283 283 282 281 280 280 279 279
Wind_Speed
8 6 1 4 3 4 3 6 3 3 2 3 3 5 10 2 6 6 2 5 14 13 10 11 14 14 12 13 15 16 16 15 15 14 13 13 13 13 12 11 10 9 9 8 8 9 9 9 9
5 2 4 2 4 2 5 5 8 6 4 8 6 3 3 2 3 7 6 10 15 12 9 7 12 13 12 12 15 17 16 15 15 14 12 12 13 11 10 9 9 7 8 7 7 7 7 7 8
5 1 2 2 3 6 5 5 6 4 8 2 5 5 4 6 2 10 7 12 13 10 8 6 11 13 14 13 14 16 16 16 14 13 12 11 11 10 9 8 7 6 6 6 6 6 6 6 7
3 4 2 3 8 5 6 5 4 2 3 3 5 6 2 4 9 8 16 12 13 9 7 9 13 15 15 13 15 16 14 15 12 11 10 9 10 10 7 8 6 5 6 5 5 6 6 7 8
2 2 3 3 6 4 4 4 1 2 3 0 3 6 3 1 7 16 14 11 13 9 7 8 14 15 15 15 17 16 14 14 13 12 10 9 8 7 7 6 5 5 4 4 4 5 6 7 8
2 2 2 5 6 2 5 4 2 4 1 0 4 5 4 5 14 13 13 10 11 11 6 9 12 13 15 16 15 15 13 13 12 11 10 10 9 7 6 5 4 3 2 3 4 5 6 7 8
4 3 4 4 4 3 4 0 2 3 3 4 6 5 2 5 10 12 12 10 9 8 8 8 9 10 10 11 12 12 12 12 11 10 10 8 7 6 5 3 2 1 2 3 4 5 6 7 8
4 3 5 6 7 7 4 2 3 3 1 4 5 6 6 8 10 11 11 11 10 9 11 9 7 6 6 6 10 10 11 10 9 8 7 6 6 5 4 3 1 2 3 4 5 6 7 7 8
2 6 13 11 9 3 2 2 2 1 6 3 4 3 4 16 14 13 13 11 11 12 12 10 7 7 6 6 6 9 9 9 8 6 6 5 2 3 3 3 4 4 4 5 6 6 7 8 7
7 10 19 5 11 4 3 2 5 2 3 5 2 2 15 19 17 17 18 16 17 16 13 11 7 6 6 5 5 5 5 4 4 4 4 3 3 3 2 3 5 6 5 5 6 5 5 5 3
7 14 11 9 10 4 2 6 2 5 4 7 7 8 15 19 16 16 13 14 14 17 12 12 8 6 6 6 4 2 2 3 3 4 4 3 2 1 1 1 2 2 3 1 2 4 3 5 4
11 9 14 9 5 3 7 4 4 6 7 8 13 14 14 19 20 19 17 14 14 16 16 12 8 8 6 4 4 4 3 3 3 3 4 2 1 1 2 1 2 1 2 4 4 3 4 5 5
20 12 12 15 13 7 6 10 7 7 10 4 11 20 19 16 18 14 13 12 13 14 13 11 8 8 6 6 3 4 4 3 4 3 3 3 2 2 2 2 3 4 4 3 3 3 4 5 5
6 17 18 9 15 11 16 11 7 6 3 10 17 23 22 19 18 14 15 14 14 14 13 11 10 8 7 6 6 4 4 4 3 3 3 4 3 3 3 3 4 4 3 3 3 4 4 4 4
12 16 12 15 7 9 12 17 25 13 6 11 19 21 18 17 14 19 17 17 16 13 12 12 12 9 8 8 7 4 4 4 3 3 3 4 4 5 4 4 4 3 3 5 4 5 5 5 5
10 7 14 11 12 8 12 24 19 19 9 10 13 15 14 12 15 15 15 15 15 14 13 12 10 11 9 7 6 4 4 4 4 4 3 5 6 6 5 4 3 3 4 4 4 4 4 4 4
12 4 13 9 12 8 21 13 16 17 16 13 14 16 15 10 14 14 15 15 13 13 13 12 9 10 8 6 7 6 7 5 5 4 4 6 6 6 6 4 4 4 4 4 4 4 3 4 4
13 13 5 9 5 11 15 17 7 11 19 17 15 13 14 14 19 15 15 14 13 11 12 10 7 8 8 7 8 7 7 6 5 4 5 6 6 6 6 4 4 4 4 4 4 4 5 4 3
13 10 16 9 5 5 15 13 16 16 14 14 16 16 15 17 13 13 13 13 12 9 10 10 9 7 9 8 7 6 5 4 5 5 6 7 6 6 6 4 5 4 5 4 2 3 5 7 4
13 14 10 3 6 3 9 19 20 25 11 14 17 16 19 14 13 14 14 13 14 13 12 11 11 10 9 7 4 5 5 5 5 4 6 6 6 6 6 5 5 5 4 6 5 4 2 3 5
20 17 12 4 1 10 3 12 17 22 8 15 16 22 19 20 19 17 16 15 14 14 14 13 12 12 10 10 10 8 8 5 3 4 4 5 6 6 6 6 5 5 4 4 4 4 4 3 4
14 14 8 8 3 5 10 7 15 22 19 14 16 11 17 18 17 15 17 16 16 14 13 13 12 12 10 13 11 14 7 6 3 4 5 5 5 6 5 6 5 5 4 5 4 4 4 3 3
7 20 11 4 4 1 7 6 4 23 22 15 17 20 16 15 18 19 17 16 12 12 13 11 10 11 12 11 12 9 8 7 7 6 8 6 5 5 5 5 5 6 4 5 6 5 7 4 3
15 11 7 3 2 5 11 12 7 19 34 20 13 18 18 15 11 10 10 12 9 7 8 11 12 9 10 10 10 11 15 13 10 8 7 4 4 4 5 5 5 5 5 5 5 6 7 5 5
8 6 4 3 2 6 2 11 5 11 26 23 12 15 14 14 14 14 14 11 10 10 7 10 13 8 11 12 9 11 12 11 12 9 6 7 4 2 4 4 5 4 5 5 5 6 6 4 5
10 5 4 5 1 4 2 7 3 7 19 21 12 15 15 13 11 13 13 13 14 10 9 8 12 13 10 11 12 11 12 8 7 7 7 5 4 2 5 5 6 5 5 5 4 4 5 5 5
8 5 4 7 2 4 3 2 6 7 15 13 13 13 14 14 13 13 13 10 15 12 8 10 10 10 11 12 10 12 10 10 8 10 6 5 5 3 4 6 6 5 5 6 5 4 5 5 4
3 10 6 2 4 3 3 2 2 2 11 16 14 14 12 13 12 10 10 9 6 10 13 10 10 12 9 10 11 9 12 9 8 8 9 7 6 4 6 5 6 5 5 6 6 4 4 5 3
3 3 5 3 3 3 2 1 4 8 5 16 11 11 12 12 12 11 9 9 7 8 9 11 9 12 12 10 10 10 12 11 7 5 5 6 6 6 6 6 6 5 5 5 5 5 5 6 5
4 4 4 3 4 1 1 2 7 4 5 13 12 10 10 11 11 11 11 9 8 7 9 9 8 11 11 11 10 8 10 11 9 6 6 5 6 5 6 6 5 5 5 6 6 6 5 6 5
Wind_Direction
319 312 111 48 61 67 244 254 261 258 237 333 67 146 167 89 159 203 79 141 129 138 144 152 162 160 159 148 148 138 130 126 123 123 124 122 116 115 114 110 107 105 99 89 78 69 62 55 49
309 280 40 85 113 163 255 250 250 229 137 127 62 52 90 144 102 124 121 152 136 136 140 149 160 159 154 148 147 144 138 134 130 127 126 123 125 120 116 112 116 112 101 91 78 66 58 51 44
299 42 86 154 182 195 217 224 266 269 162 127 108 50 146 163 93 145 146 142 131 129 128 144 152 156 153 151 151 150 143 141 133 133 132 130 122 122 120 126 122 107 98 77 66 56 47 38 31
337 7 7 145 224 244 206 236 312 133 225 67 114 84 42 234 158 156 144 138 126 125 123 147 150 147 150 150 154 152 149 129 130 132 132 134 132 132 128 142 106 96 82 66 50 40 28 17 11
8 83 251 222 249 256 252 287 148 284 297 41 139 172 86 63 122 135 136 137 134 132 132 136 139 135 136 136 143 133 127 129 136 136 138 144 144 147 142 134 126 105 83 58 32 18 11 2 356
316 104 185 227 242 231 284 280 208 179 197 138 67 112 142 120 136 144 139 137 138 138 131 128 125 130 131 132 131 130 133 136 137 141 145 146 147 146 144 142 127 110 73 27 5 353 348 344 343
182 152 223 218 248 253 229 20 217 194 200 211 157 127 101 157 150 144 135 126 131 130 123 123 125 124 119 122 125 130 134 137 143 149 153 150 148 149 148 149 134 60 3 330 324 327 336 340 342
178 173 212 208 218 256 243 233 202 176 255 119 146 189 182 188 149 128 129 128 130 133 140 135 122 118 116 124 125 124 129 137 143 147 147 153 158 165 177 180 218 277 288 301 321 331 331 339 345
192 220 227 209 196 186 346 290 235 350 119 38 170 170 228 138 139 132 141 140 146 154 156 147 134 128 124 121 134 133 141 145 146 145 159 154 183 204 211 242 269 285 300 318 323 314 322 335 345
205 223 225 208 225 208 303 304 283 214 165 200 119 317 135 146 155 156 163 161 166 166 165 155 143 139 134 135 141 143 139 145 151 159 174 186 217 233 234 261 275 287 310 298 306 339 358 357 10
208 239 223 209 238 240 242 305 249 226 249 212 171 155 168 156 163 163 166 167 169 167 167 163 150 145 146 141 159 142 140 153 169 181 190 209 198 224 223 284 296 290 270 295 31 38 36 36 38
244 221 232 212 223 197 247 285 274 245 231 255 131 158 172 170 171 170 168 170 163 169 173 168 157 157 163 142 160 159 156 171 182 189 190 155 150 193 203 201 231 212 67 49 51 49 48 49 37
247 239 222 229 230 212 239 249 257 282 284 246 145 160 187 205 169 169 161 164 162 169 170 171 158 166 168 159 166 164 177 174 184 188 183 153 158 150 161 95 68 50 52 63 66 60 51 39 23
287 233 243 229 224 233 238 248 253 246 246 167 163 168 193 196 175 160 163 164 167 171 173 169 171 172 163 168 173 182 170 179 168 170 185 181 160 136 94 81 63 59 60 57 64 55 49 34 25
269 236 236 225 218 222 224 246 239 242 179 186 187 171 187 185 179 175 168 167 169 173 170 170 172 170 169 176 179 167 173 153 155 157 135 131 103 100 94 81 75 62 55 59 57 51 43 31 20
226 226 212 196 196 205 170 248 235 234 179 195 194 177 185 184 181 173 168 168 170 166 169 168 170 169 175 180 165 143 136 119 96 83 76 76 84 90 88 88 71 58 58 64 55 36 44 32 34
215 227 221 185 190 179 201 245 235 221 206 193 191 194 183 172 182 181 174 170 166 166 165 165 155 160 159 148 110 107 102 92 82 79 73 76 77 85 96 86 71 58 62 61 66 45 61 36 27
212 218 184 211 198 210 227 225 266 218 201 199 188 195 186 183 192 179 174 171 170 164 160 155 154 153 128 123 107 94 84 71 65 58 61 72 75 70 80 72 67 65 70 55 60 79 47 52 17
235 215 213 184 210 207 229 247 243 255 214 188 186 191 194 200 182 175 177 172 166 165 158 159 157 154 138 134 126 116 107 94 74 63 54 61 74 72 80 78 68 49 63 59 55 94 58 40 9
184 191 189 254 207 188 252 243 233 231 241 204 183 179 202 185 173 179 177 172 173 173 175 171 170 153 155 149 109 111 122 85 86 82 66 60 68 69 83 82 72 61 64 45 37 42 92 63 15
209 215 210 200 305 225 300 276 229 220 236 231 199 189 190 184 180 181 178 176 168 173 172 175 173 159 154 122 108 96 96 99 94 80 75 60 77 76 79 79 85 77 69 64 48 39 69 119 41
166 193 173 180 182 221 151 281 210 202 214 235 200 182 192 188 179 175 175 179 176 177 166 168 167 157 141 141 136 152 150 147 122 113 100 78 67 84 87 87 81 81 74 74 61 43 55 86 68
183 170 152 149 198 330 202 239 263 190 201 224 191 191 195 180 178 174 173 175 169 160 165 162 148 142 149 151 155 146 113 108 117 119 110 96 77 62 77 89 93 84 73 72 73 58 55 43 79
127 112 137 122 155 234 194 197 208 193 200 215 199 184 185 169 159 144 125 129 120 120 135 138 135 137 140 140 147 146 139 140 137 138 124 108 94 73 54 64 67 75 84 72 73 73 67 70 69
153 147 170 167 152 245 199 185 287 234 188 202 194 189 179 167 148 143 140 136 130 127 119 134 133 122 129 123 128 129 131 135 128 132 125 132 123 126 108 94 88 77 91 93 82 84 84 71 80
153 172 157 140 210 312 319 205 238 305 195 176 180 178 170 154 147 152 146 142 132 123 115 126 130 121 120 129 127 125 124 122 124 129 133 106 96 116 114 107 99 99 87 83 89 92 93 91 89
162 152 170 80 236 254 227 264 276 304 168 136 137 153 158 151 149 147 138 151 138 122 117 119 117 118 120 123 124 117 117 130 130 112 97 111 109 118 103 103 99 101 124 119 119 102 103 106 107
174 164 105 108 242 238 209 127 281 35 155 149 155 162 141 127 122 122 122 125 120 113 118 97 110 109 111 115 107 117 110 89 92 107 125 141 131 135 133 122 124 152 145 131 125 119 132 118 110
129 117 95 157 221 269 170 60 232 295 149 157 131 129 139 132 128 119 107 92 91 92 100 108 126 118 102 94 111 116 107 98 98 121 130 151 153 158 139 146 162 161 151 133 128 139 134 125 124
13 57 82 151 265 182 256 68 335 265 112 110 111 119 114 116 120 114 106 106 97 85 90 96 108 113 118 125 115 115 123 135 147 149 171 151 161 147 153 167 165 163 156 158 159 157 147 151 159